College Park, MD

12:45 AM EST on December 11, 2019 (GMT -0500)
College Park

Weather History for KCGS - November, 2019

Change the Weather History Date:

Saturday, November 16, 2019

  Actual Average Record
Temperature  
Mean Temperature 36 °F -  
Max Temperature 44 °F 57 °F 83 °F (1993)
Min Temperature 28 °F 36 °F 20 °F (1967)
Degree Days  
Heating Degree Days 29    
Moisture  
Dew Point 15 °F    
Average Humidity 45    
Maximum Humidity 83    
Minimum Humidity 16    
Precipitation  
Precipitation 0.00 in - - ()
Sea Level Pressure  
Sea Level Pressure 30.34 in    
Wind  
Wind Speed 4 mph (NNE)    
Max Wind Speed 14 mph    
Max Gust Speed 23 mph    
Visibility 10 miles    
Events      
Averages and records for this station are not official NWS values.
T = Trace of Precipitation, MM = Missing Value Source: NWS Daily Summary

Daily Weather History Graph

Daily Weather History Graph

Search for Another Location

Airport or City:

Astronomy

Nov. 16, 2019 Rise Set
Actual Time 6:51 AM EST 4:53 PM EST
Civil Twilight 6:22 AM EST 5:21 PM EST
Nautical Twilight 5:50 AM EST 5:53 PM EST
Astronomical Twilight 5:18 AM EST 6:25 PM EST
Moon 8:24 PM EST (11/16) 10:42 AM EST (11/16)
Length of Visible Light 10h 58m
Length of Day
10h 01m
Waning Gibbous, 82% of the Moon is Illuminated
Nov 16
Waning Gibbous
Nov 19
Last Quarter
Nov 26
New
Dec 4
First Quarter
Dec 12
Full

Hourly Weather History & Observations

Time (EST) Temp. Windchill Dew Point Humidity Pressure Visibility Wind Dir Wind Speed Gust Speed Precip Events Conditions
12:15 AM 33.3 °F - 25.9 °F 74% 30.24 in 10.0 mi Calm Calm - N/A   Clear
12:35 AM 32.5 °F - 26.1 °F 77% 30.24 in 10.0 mi Calm Calm - N/A   Clear
12:55 AM 33.1 °F 28.7 °F 25.5 °F 74% 30.24 in 10.0 mi North 4.6 mph - N/A   Clear
1:15 AM 37.4 °F 34.9 °F 23.5 °F 57% 30.24 in 10.0 mi North 3.5 mph - N/A   Clear
1:35 AM 38.3 °F 33.9 °F 23.9 °F 56% 30.25 in 10.0 mi North 5.8 mph - N/A   Clear
1:55 AM 38.5 °F 34.1 °F 23.9 °F 56% 30.25 in 10.0 mi North 5.8 mph - N/A   Clear
2:15 AM 38.1 °F 33.7 °F 24.3 °F 57% 30.25 in 10.0 mi North 5.8 mph - N/A   Clear
2:35 AM 37.8 °F 34.2 °F 24.3 °F 58% 30.26 in 10.0 mi North 4.6 mph - N/A   Clear
2:55 AM 37.0 °F - 24.4 °F 60% 30.27 in 10.0 mi Calm Calm - N/A   Clear
3:15 AM 34.0 °F - 24.3 °F 68% 30.27 in 10.0 mi Calm Calm - N/A   Clear
3:35 AM 32.5 °F - 24.6 °F 73% 30.27 in 10.0 mi Calm Calm - N/A   Clear
3:55 AM 32.0 °F - 26.1 °F 79% 30.27 in 10.0 mi Calm Calm - N/A   Clear
4:15 AM 31.1 °F - 25.5 °F 80% 30.28 in 10.0 mi Calm Calm - N/A   Clear
4:35 AM 30.7 °F - 25.9 °F 82% 30.29 in 10.0 mi Calm Calm - N/A   Clear
4:55 AM 30.2 °F - 24.8 °F 80% 30.30 in 10.0 mi Calm Calm - N/A   Clear
5:15 AM 29.8 °F - 24.8 °F 81% 30.30 in 10.0 mi Calm Calm - N/A   Clear
5:35 AM 30.2 °F - 25.7 °F 83% 30.31 in 7.0 mi Calm Calm - N/A   Clear
5:55 AM 29.1 °F - 23.7 °F 80% 30.32 in 10.0 mi Calm Calm - N/A   Clear
6:15 AM 28.9 °F - 24.3 °F 83% 30.33 in 10.0 mi Calm Calm - N/A   Clear
6:35 AM 29.1 °F - 24.6 °F 83% 30.34 in 5.0 mi Calm Calm - N/A   Clear
7:15 AM 32.0 °F - 23.0 °F 69% 30.35 in 10.0 mi Calm Calm - N/A   Clear
7:35 AM 34.2 °F 31.2 °F 22.8 °F 63% 30.36 in 10.0 mi North 3.5 mph - N/A   Clear
7:55 AM 35.8 °F 30.1 °F 22.6 °F 59% 30.36 in 10.0 mi North 6.9 mph - N/A   Clear
8:15 AM 36.9 °F 31.4 °F 22.5 °F 56% 30.36 in 10.0 mi North 6.9 mph - N/A   Clear
8:35 AM 37.6 °F 30.5 °F 22.3 °F 54% 30.36 in 10.0 mi North 10.4 mph - N/A   Clear
8:55 AM 38.8 °F 33.2 °F 21.6 °F 50% 30.37 in 10.0 mi NNE 8.1 mph 20.7 mph N/A   Clear
9:15 AM 39.6 °F 34.0 °F 20.5 °F 46% 30.38 in 10.0 mi NNE 8.1 mph 23.0 mph N/A   Clear
9:35 AM 40.1 °F 34.7 °F 20.3 °F 45% 30.38 in 10.0 mi NNE 8.1 mph 20.7 mph N/A   Clear
9:55 AM 40.6 °F 34.3 °F 20.1 °F 44% 30.38 in 10.0 mi NE 10.4 mph 20.7 mph N/A   Clear
10:15 AM 41.2 °F 35.5 °F 20.1 °F 43% 30.38 in 10.0 mi NNE 9.2 mph 18.4 mph N/A   Clear
10:35 AM 41.7 °F 36.1 °F 19.4 °F 41% 30.38 in 10.0 mi NE 9.2 mph 17.3 mph N/A   Clear
10:55 AM 41.9 °F 36.9 °F 18.5 °F 39% 30.39 in 10.0 mi NE 8.1 mph 17.3 mph N/A   Clear
11:15 AM 42.6 °F 36.8 °F 18.5 °F 38% 30.39 in 10.0 mi ENE 10.4 mph 17.3 mph N/A   Clear
11:35 AM 42.8 °F 37.5 °F 18.0 °F 37% 30.38 in 10.0 mi NNE 9.2 mph 18.4 mph N/A   Clear
11:55 AM 42.8 °F 37.0 °F 15.4 °F 33% 30.37 in 10.0 mi NNE 10.4 mph 18.4 mph N/A   Clear
12:15 PM 43.2 °F 37.9 °F 14.2 °F 31% 30.36 in 10.0 mi NE 9.2 mph - N/A   Clear
12:35 PM 43.7 °F 39.1 °F 12.7 °F 29% 30.35 in 10.0 mi NE 8.1 mph 16.1 mph N/A   Clear
12:55 PM 44.2 °F 37.6 °F 10.0 °F 25% 30.35 in 10.0 mi ENE 13.8 mph 17.3 mph N/A   Clear
1:15 PM 44.2 °F 38.8 °F 8.2 °F 23% 30.34 in 10.0 mi NE 10.4 mph 16.1 mph N/A   Clear
1:35 PM 43.9 °F 38.8 °F 5.9 °F 21% 30.34 in 10.0 mi ENE 9.2 mph 18.4 mph N/A   Clear
1:55 PM 44.2 °F 38.8 °F 3.7 °F 19% 30.33 in 10.0 mi NE 10.4 mph 16.1 mph N/A   Clear
2:15 PM 44.2 °F 39.7 °F 1.6 °F 17% 30.34 in 10.0 mi ENE 8.1 mph 18.4 mph N/A   Clear
2:35 PM 44.1 °F 39.5 °F 0.1 °F 16% 30.34 in 10.0 mi NE 8.1 mph - N/A   Clear
2:55 PM 43.5 °F 36.7 °F 0.3 °F 17% 30.35 in 10.0 mi East 13.8 mph 18.4 mph N/A   Clear
3:15 PM 43.0 °F 36.8 °F -0.8 °F 16% 30.35 in 10.0 mi NE 11.5 mph 19.6 mph N/A   Clear
3:35 PM 42.3 °F 36.3 °F 1.8 °F 19% 30.35 in 10.0 mi East 10.4 mph 16.1 mph N/A   Clear
4:15 PM 41.2 °F 36.0 °F 4.8 °F 22% 30.35 in 10.0 mi East 8.1 mph - N/A   Clear
4:35 PM 40.1 °F 36.9 °F 5.2 °F 24% 30.36 in 10.0 mi NNE 4.6 mph - N/A   Clear
4:55 PM 39.6 °F 35.4 °F 5.0 °F 24% 30.37 in 10.0 mi ENE 5.8 mph - N/A   Clear
5:15 PM 39.2 °F 37.0 °F 5.2 °F 24% 30.37 in 10.0 mi NNE 3.5 mph - N/A   Clear
5:35 PM 38.3 °F 35.9 °F 5.0 °F 25% 30.38 in 10.0 mi NE 3.5 mph - N/A   Clear
5:55 PM 38.3 °F 35.9 °F 5.0 °F 25% 30.38 in 10.0 mi NNE 3.5 mph - N/A   Clear
6:15 PM 37.9 °F 35.5 °F 4.1 °F 24% 30.38 in 10.0 mi NNE 3.5 mph - N/A   Clear
6:35 PM 37.6 °F 35.1 °F 4.1 °F 25% 30.38 in 10.0 mi NNE 3.5 mph - N/A   Clear
6:55 PM 37.2 °F 34.7 °F 5.0 °F 26% 30.38 in 10.0 mi NNE 3.5 mph - N/A   Clear
7:15 PM 36.3 °F 33.7 °F 6.1 °F 28% 30.37 in 10.0 mi North 3.5 mph - N/A   Clear
7:35 PM 36.1 °F 33.5 °F 7.2 °F 30% 30.36 in 10.0 mi North 3.5 mph - N/A   Scattered Clouds
7:55 PM 36.9 °F 33.1 °F 9.0 °F 32% 30.37 in 10.0 mi NNE 4.6 mph - N/A   Mostly Cloudy
8:15 PM 37.4 °F 33.8 °F 10.8 °F 33% 30.36 in 10.0 mi North 4.6 mph - N/A   Overcast
8:35 PM 37.0 °F 33.3 °F 12.2 °F 36% 30.36 in 10.0 mi NNE 4.6 mph - N/A   Overcast
8:55 PM 37.4 °F 33.8 °F 12.4 °F 36% 30.36 in 10.0 mi NNE 4.6 mph - N/A   Overcast
10:15 PM 35.6 °F 29.9 °F 8.1 °F 32% 30.36 in 10.0 mi NNE 6.9 mph - N/A   Scattered Clouds
10:35 PM 35.6 °F 31.7 °F 7.7 °F 31% 30.35 in 10.0 mi NNE 4.6 mph - N/A   Clear
10:55 PM 35.6 °F - 7.7 °F 31% 30.36 in 10.0 mi Calm Calm - N/A   Scattered Clouds
11:15 PM 36.0 °F 31.1 °F 8.1 °F 31% 30.35 in 10.0 mi NNE 5.8 mph - N/A   Overcast
11:35 PM 36.5 °F 31.0 °F 7.3 °F 30% 30.35 in 10.0 mi NE 6.9 mph - N/A   Overcast
11:55 PM 36.5 °F 32.7 °F 6.4 °F 29% 30.35 in 10.0 mi NNE 4.6 mph - N/A   Overcast